DW4238 Weather Reports


time (UTC)temp
C
wind
direction
speed
KPH
gust
KPH
rain 1hr
cm
rain 24hr
cm
rain mn
cm
humidity
%
barometer
mb
20260503221113 25 184 11.3 17.7 0.00 0.00 0.00 43 1017.4
20260503220618 25 176 12.9 17.7 0.00 0.00 0.00 43 1017.4
20260503220048 25 157 12.9 17.7 0.00 0.00 0.00 44 1017.6
20260503215553 25 192 11.3 22.5 0.00 0.00 0.00 45 1017.6
20260503214622 25 171 11.3 20.9 0.00 0.00 0.00 44 1017.9
20260503214103 25 220 8.0 19.3 0.00 0.00 0.00 44 1018.0
20260503213612 25 184 11.3 19.3 0.00 0.00 0.00 47 1018.0
20260503213031 25 107 11.3 27.4 0.00 0.00 0.00 46 1017.9
20260503212541 25 126 12.9 27.4 0.00 0.00 0.00 45 1018.0
20260503211540 25 148 9.7 24.1 0.00 0.00 0.00 47 1017.9
20260503211050 25 140 19.3 27.4 0.00 0.00 0.00 45 1018.2
20260503210115 25 139 9.7 22.5 0.00 0.00 0.00 45 1018.5
20260503205603 25 153 16.1 22.5 0.00 0.00 0.00 42 1018.6
20260503205103 25 130 8.0 17.7 0.00 0.00 0.00 44 1018.6
20260503204534 25 150 8.0 17.7 0.00 0.00 0.00 42 1018.7
20260503204039 26 122 11.3 19.3 0.00 0.00 0.00 45 1018.7
20260503203044 26 171 11.3 19.3 0.00 0.00 0.00 45 1018.9
20260503202549 25 89 6.4 14.5 0.00 0.00 0.00 45 1019.0
20260503201547 25 142 6.4 17.7 0.00 0.00 0.00 45 1019.2
20260503201100 25 136 8.0 22.5 0.00 0.00 0.00 43 1019.3
20260503200123 25 126 16.1 20.9 0.00 0.00 0.00 44 1019.3
20260503195533 25 150 6.4 17.7 0.00 0.00 0.00 45 1019.2
20260503195125 25 115 9.7 17.7 0.00 0.00 0.00 43 1019.4
20260503194544 25 146 8.0 16.1 0.00 0.00 0.00 45 1019.5
20260503194029 25 143 8.0 16.1 0.00 0.00 0.00 47 1019.7
20260503193641 25 217 12.9 19.3 0.00 0.00 0.00 42 1019.8
20260503193044 25 184 12.9 19.3 0.00 0.00 0.00 42 1019.9
20260503192546 25 92 8.0 16.1 0.00 0.00 0.00 46 1020.0
20260503191600 25 137 11.3 20.9 0.00 0.00 0.00 43 1020.1
20260503191103 25 150 11.3 25.7 0.00 0.00 0.00 44 1020.1
20260503190124 25 126 9.7 17.7 0.00 0.00 0.00 46 1020.2
20260503185611 25 165 6.4 14.5 0.00 0.00 0.00 47 1020.3
20260503185124 25 157 8.0 22.5 0.00 0.00 0.00 46 1020.3
20260503184544 25 134 14.5 22.5 0.00 0.00 0.00 44 1020.5
20260503184053 25 198 4.8 14.5 0.00 0.00 0.00 46 1020.5
20260503183054 25 140 9.7 17.7 0.00 0.00 0.00 45 1020.7
20260503182544 25 137 8.0 17.7 0.00 0.00 0.00 49 1020.7
20260503181609 25 134 6.4 17.7 0.00 0.00 0.00 48 1020.9
20260503181114 24 144 11.3 22.5 0.00 0.00 0.00 47 1020.9
20260503180624 24 168 11.3 22.5 0.00 0.00 0.00 49 1020.9
20260503180050 24 126 8.0 17.7 0.00 0.00 0.00 49 1021.1
20260503175553 24 160 6.4 22.5 0.00 0.00 0.00 48 1021.1
20260503174613 24 138 6.4 14.5 0.00 0.00 0.00 50 1021.4
20260503174121 24 86 6.4 14.5 0.00 0.00 0.00 52 1021.5
20260503173559 24 115 6.4 14.5 0.00 0.00 0.00 53 1021.6
20260503173030 23 198 6.4 11.3 0.00 0.00 0.00 51 1021.6
20260503172616 23 205 4.8 16.1 0.00 0.00 0.00 52 1021.7
20260503172124 23 216 11.3 16.1 0.00 0.00 0.00 51 1021.8
20260503171530 23 149 3.2 14.5 0.00 0.00 0.00 51 1021.9
20260503171040 23 146 8.0 14.5 0.00 0.00 0.00 52 1022.0
20260503150108 21 195 8.0 11.3 0.00 0.00 0.00 65 1022.2
20260503131045 17 224 6.4 8.0 0.00 0.00 0.00 74 1021.4
20260503130552 16 250 3.2 6.4 0.00 0.00 0.00 76 1021.4
20260503110126 15 212 3.2 6.4 0.00 0.00 0.00 75 1020.2
20260503081553 16 261 0.0 0.0 0.00 0.00 0.00 70 1019.9
20260503081036 16 261 0.0 0.0 0.00 0.00 0.00 69 1019.9
20260503072614 17 261 3.2 4.8 0.00 0.00 0.00 67 1020.3
20260503072123 17 261 3.2 4.8 0.00 0.00 0.00 67 1020.4
20260503071542 17 261 1.6 4.8 0.00 0.00 0.00 66 1020.4
20260503071053 17 261 3.2 4.8 0.00 0.00 0.00 66 1020.4
20260503070616 17 261 3.2 4.8 0.00 0.00 0.00 65 1020.4
20260503055044 18 261 0.0 0.0 0.00 0.00 0.00 63 1020.4
20260503054544 18 261 0.0 0.0 0.00 0.00 0.00 62 1020.4
20260503054054 18 261 0.0 0.0 0.00 0.00 0.00 63 1020.4
20260503053540 18 261 0.0 0.0 0.00 0.00 0.00 63 1020.4
20260503053033 18 261 0.0 0.0 0.00 0.00 0.00 63 1020.4
20260503052542 18 261 0.0 0.0 0.00 0.00 0.00 62 1020.5
20260503052028 18 261 0.0 0.0 0.00 0.00 0.00 62 1020.5
20260503051553 18 261 0.0 0.0 0.00 0.00 0.00 62 1020.5
20260503051042 18 261 0.0 0.0 0.00 0.00 0.00 63 1020.4
20260503050543 18 261 0.0 0.0 0.00 0.00 0.00 63 1020.4
20260503050122 18 261 0.0 0.0 0.00 0.00 0.00 63 1020.3
20260503045529 18 261 0.0 0.0 0.00 0.00 0.00 63 1020.2
20260503044529 18 261 0.0 0.0 0.00 0.00 0.00 63 1020.3
20260503044142 18 261 0.0 0.0 0.00 0.00 0.00 62 1020.3
20260503043623 18 261 0.0 0.0 0.00 0.00 0.00 62 1020.4
20260503043033 18 261 0.0 0.0 0.00 0.00 0.00 62 1020.4
20260503042546 18 261 0.0 0.0 0.00 0.00 0.00 62 1020.3
20260503041606 18 261 0.0 0.0 0.00 0.00 0.00 62 1020.3
20260503041118 18 261 0.0 0.0 0.00 0.00 0.00 62 1020.3
20260503040622 18 261 0.0 0.0 0.00 0.00 0.00 62 1020.3
20260503040047 18 261 0.0 0.0 0.00 0.00 0.00 62 1020.2
20260503035550 18 261 0.0 0.0 0.00 0.00 0.00 63 1020.1
20260503034611 18 261 0.0 0.0 0.00 0.00 0.00 63 1020.1
20260503034104 18 261 0.0 0.0 0.00 0.00 0.00 63 1020.1
20260503033125 18 261 0.0 0.0 0.00 0.00 0.00 64 1020.1
20260503032534 18 261 0.0 0.0 0.00 0.00 0.00 63 1020.1
20260503031552 19 261 0.0 0.0 0.00 0.00 0.00 61 1019.7
20260503031102 20 261 0.0 0.0 0.00 0.00 0.00 60 1019.7
20260503025604 20 261 0.0 1.6 0.00 0.00 0.00 59 1019.4
20260503024619 20 261 1.6 3.2 0.00 0.00 0.00 59 1019.4
20260503024100 20 261 1.6 1.6 0.00 0.00 0.00 60 1019.3
20260503023615 20 261 0.0 0.0 0.00 0.00 0.00 60 1019.3
20260503023028 20 261 0.0 0.0 0.00 0.00 0.00 60 1019.3
20260503022538 20 261 0.0 0.0 0.00 0.00 0.00 59 1019.4
20260503021559 20 261 0.0 3.2 0.00 0.00 0.00 60 1019.3
20260503021107 20 261 0.0 3.2 0.00 0.00 0.00 59 1019.3
20260503020611 20 261 1.6 3.2 0.00 0.00 0.00 59 1019.2
20260503020041 20 261 0.0 1.6 0.00 0.00 0.00 59 1018.9
20260503015553 20 261 0.0 0.0 0.00 0.00 0.00 59 1018.9
20260503014546 20 261 0.0 0.0 0.00 0.00 0.00 59 1018.9
20260503014035 20 261 0.0 0.0 0.00 0.00 0.00 60 1018.9
20260503013625 21 261 0.0 0.0 0.00 0.00 0.00 60 1018.9
20260503013044 21 261 0.0 0.0 0.00 0.00 0.00 59 1018.8
20260503012527 21 261 0.0 0.0 0.00 0.00 0.00 57 1018.7
20260503011555 22 261 0.0 1.6 0.00 0.00 0.00 56 1018.6
20260503011102 22 262 0.0 3.2 0.00 0.00 0.00 56 1018.5
20260503010104 22 332 0.0 1.6 0.00 0.00 0.00 54 1018.5
20260503005607 22 332 0.0 1.6 0.00 0.08 0.00 54 1018.4
20260503005117 22 9 0.0 1.6 0.00 0.08 0.00 53 1018.4
20260503004536 22 277 0.0 3.2 0.00 0.08 0.00 54 1018.4
20260503004048 22 317 1.6 3.2 0.00 0.08 0.00 54 1018.4
20260503003050 22 317 1.6 4.8 0.00 0.08 0.00 54 1018.4
20260503002600 23 242 0.0 4.8 0.00 0.08 0.00 55 1018.3
20260503001625 23 10 1.6 4.8 0.00 0.08 0.00 54 1018.2
20260503001035 23 10 4.8 6.4 0.00 0.08 0.00 52 1018.2
20260503000617 23 5 3.2 8.0 0.00 0.08 0.00 53 1018.2
20260503000041 23 24 4.8 9.7 0.00 0.23 0.00 51 1018.2
20260502235644 23 13 6.4 9.7 0.00 0.23 0.00 51 1018.2
20260502235134 23 337 4.8 9.7 0.00 0.23 0.00 51 1018.2
20260502234538 23 18 4.8 9.7 0.00 0.23 0.00 54 1018.1
20260502234043 23 294 4.8 11.3 0.00 0.23 0.00 52 1018.1
20260502233053 23 34 6.4 12.9 0.00 0.23 0.00 51 1018.0
20260502232553 23 16 6.4 14.5 0.00 0.23 0.00 51 1018.1
20260502232103 23 347 8.0 17.7 0.00 0.23 0.00 50 1018.0
20260502231526 23 32 11.3 17.7 0.00 0.23 0.00 51 1018.1
20260502231137 23 355 3.2 14.5 0.00 0.23 0.00 52 1018.1
20260502230616 23 51 6.4 17.7 0.00 0.23 0.00 51 1018.0
20260502230043 23 56 9.7 17.7 0.00 0.41 0.00 50 1018.0
20260502225554 23 42 8.0 17.7 0.00 0.41 0.00 52 1018.0
20260502224542 23 346 4.8 19.3 0.00 0.41 0.00 53 1018.1
20260502224053 23 344 9.7 19.3 0.00 0.41 0.00 51 1018.1
20260502223602 23 333 8.0 16.1 0.00 0.41 0.00 51 1018.1
20260502223027 23 54 8.0 14.5 0.00 0.41 0.00 52 1018.1
20260502222538 23 47 6.4 19.3 0.00 0.41 0.00 52 1018.1
20260502221556 23 65 6.4 19.3 0.00 0.41 0.00 52 1018.2